PBO Station Position Time Series. Reference Frame : NAM14
Format Version,1.1.0
4-character ID,CIT1
Station name,CaltechCampSCIGN
Begin Date, 1996-01-01
End Date, 2019-10-07
Release Date, 2019-10-08
Reference position, 34.1367084463 North Latitude, -118.1272855456 East Longitude, 215.34737 meters elevation,
Date, North (mm), East (mm), Vertical (mm), North Std. Deviation (mm), East Std. Deviation (mm),              Vertical Std. Deviation (mm), Quality,
1996-01-01,0.00, 0.00, 0.00, 3.21, 2.90, 11.16, repro,
1996-01-02,-2.75, 1.40, 1.29, 3.37, 3.10, 12.45, repro,
1996-01-03,2.84, 1.24, 8.22, 3.35, 2.96, 12.01, repro,
1996-01-04,1.33, 1.02, 0.83, 3.18, 2.86, 11.07, repro,
1996-01-05,2.98, -0.50, 0.50, 3.22, 2.90, 11.37, repro,
1996-01-06,0.89, -0.02, -6.93, 3.09, 2.76, 10.96, repro,
1996-01-07,1.76, -0.69, -6.06, 3.05, 2.70, 10.90, repro,
1996-01-08,4.02, 1.89, 6.27, 3.16, 2.93, 11.48, repro,
1996-01-09,2.10, 0.80, -7.67, 3.10, 2.74, 11.40, repro,
1996-01-10,4.32, 1.54, -2.73, 3.12, 2.81, 11.04, repro,
1996-01-11,4.05, 1.69, -5.78, 3.14, 2.86, 11.34, repro,
1996-01-12,3.60, 1.68, 2.96, 3.18, 2.92, 10.92, repro,
1996-01-13,1.93, 1.21, -1.25, 3.10, 2.84, 10.65, repro,
1996-01-14,1.61, 0.88, -4.49, 3.19, 2.87, 11.05, repro,
1996-01-15,1.63, 1.84, -10.57, 3.13, 2.84, 11.17, repro,
1996-01-16,3.85, 2.16, -0.54, 3.27, 3.03, 12.13, repro,
1996-01-17,1.75, 4.76, -4.72, 3.08, 2.86, 10.74, repro,
1996-01-18,3.90, 1.10, 1.08, 2.80, 2.60, 10.59, repro,
1996-01-19,2.75, 1.24, 7.80, 2.93, 2.83, 10.96, repro,
1996-01-20,2.87, 0.34, -6.27, 3.18, 2.98, 11.40, repro,
1996-01-21,3.57, 2.61, 8.51, 2.83, 2.69, 10.31, repro,
1996-01-22,0.59, 1.18, -5.59, 3.08, 2.93, 10.93, repro,
1996-01-23,2.97, 1.95, -3.66, 3.15, 2.96, 11.55, repro,
1996-01-24,0.45, 2.77, -8.06, 3.25, 3.04, 11.95, repro,
1996-01-25,2.54, 5.46, 8.49, 2.89, 2.72, 10.54, repro,
1996-01-26,2.83, 4.52, 1.99, 2.75, 2.66, 10.03, repro,
1996-01-27,2.11, 4.70, -1.57, 2.68, 2.46, 9.44, repro,
1996-01-28,0.41, 2.89, -9.27, 3.03, 2.93, 10.96, repro,
1996-01-29,1.10, 4.53, -0.65, 2.81, 2.65, 10.45, repro,
1996-01-30,2.90, 4.07, -4.93, 3.18, 3.06, 11.77, repro,
1996-01-31,5.64, 3.15, -12.78, 2.72, 2.58, 10.09, repro,
1996-02-01,-0.50, 4.09, -0.92, 2.72, 2.53, 9.84, repro,
1996-02-02,2.47, 5.22, -5.35, 2.73, 2.56, 10.10, repro,
1996-02-03,2.15, 5.51, -6.32, 2.79, 2.60, 10.11, repro,
1996-02-04,1.67, 2.27, -13.07, 2.82, 2.60, 10.11, repro,
1996-02-05,4.55, 4.49, -4.31, 2.65, 2.43, 9.35, repro,
1996-02-06,1.35, 4.35, -8.43, 2.74, 2.57, 9.86, repro,
1996-02-07,1.19, 3.22, -11.20, 2.76, 2.53, 9.99, repro,
1996-02-08,2.42, 2.85, -0.04, 2.62, 2.41, 9.43, repro,
1996-02-09,3.05, 3.83, -8.48, 2.83, 2.59, 10.11, repro,
1996-02-10,1.18, 4.31, -1.17, 2.59, 2.31, 9.28, repro,
1996-02-11,5.41, 4.37, -0.66, 2.69, 2.45, 9.50, repro,
1996-02-12,3.32, 3.33, -8.45, 2.88, 2.66, 10.08, repro,
1996-02-13,3.36, 2.47, -15.85, 2.98, 2.67, 10.33, repro,
1996-02-14,2.59, 2.67, -11.42, 2.94, 2.70, 10.51, repro,
1996-02-15,1.88, 2.89, -7.98, 3.03, 2.89, 11.75, repro,
1996-02-16,1.13, 5.53, -4.27, 2.88, 2.69, 10.44, repro,
1996-02-17,0.92, 2.45, -2.25, 3.10, 2.97, 12.85, repro,
1996-02-18,3.43, 4.82, -0.57, 2.91, 2.68, 10.30, repro,
1996-02-19,1.91, 2.37, 3.04, 2.85, 2.67, 10.93, repro,
1996-02-20,3.49, 1.11, 7.02, 2.99, 2.66, 10.57, repro,
1996-02-21,4.30, 1.18, -9.05, 2.92, 2.72, 10.68, repro,
1996-02-22,1.70, -0.61, -11.81, 2.89, 2.68, 10.67, repro,
1996-02-23,0.89, 4.79, -8.97, 2.73, 2.47, 9.66, repro,
1996-02-24,-0.23, 4.15, -4.14, 2.86, 2.65, 10.62, repro,
1996-02-25,2.13, -0.56, -7.79, 3.00, 2.75, 10.91, repro,
1996-02-26,1.93, 1.79, -5.82, 2.76, 2.56, 10.29, repro,
1996-02-27,0.30, 1.80, -9.83, 2.82, 2.61, 10.13, repro,
1996-02-28,0.43, 3.12, -13.10, 2.96, 2.79, 10.96, repro,
1996-02-29,2.12, 2.39, -5.48, 2.81, 2.57, 10.48, repro,
1996-03-01,1.18, 2.14, -4.51, 2.79, 2.58, 10.46, repro,
1996-03-02,3.63, 2.13, 0.04, 2.95, 2.80, 11.59, repro,
1996-03-03,2.85, 3.19, -5.06, 2.86, 2.55, 10.48, repro,
1996-03-04,2.87, 1.68, 0.28, 2.76, 2.45, 9.72, repro,
1996-03-05,-0.96, 1.49, -8.65, 2.89, 2.57, 10.33, repro,
1996-03-06,-1.12, -0.14, -12.22, 2.96, 2.71, 11.44, repro,
1996-03-07,1.27, 3.63, -0.96, 2.77, 2.48, 10.61, repro,
1996-03-08,0.13, -0.51, -5.67, 2.83, 2.68, 11.00, repro,
1996-03-09,4.47, 0.90, -11.01, 3.08, 2.85, 11.70, repro,
1996-03-10,3.13, 2.18, -11.68, 3.01, 2.73, 11.40, repro,
1996-03-11,1.47, 1.10, -15.28, 2.96, 2.67, 11.08, repro,
1996-03-12,1.58, 1.56, -10.15, 2.74, 2.37, 10.08, repro,
1996-03-13,0.63, -1.23, 3.33, 2.83, 2.39, 10.18, repro,
1996-03-14,2.34, -3.02, -10.84, 2.88, 2.64, 11.23, repro,
1996-03-15,3.76, 3.34, -4.59, 2.72, 2.45, 9.81, repro,
1996-03-16,1.68, 1.31, 4.60, 2.74, 2.53, 10.33, repro,
1996-03-17,3.54, 1.56, -3.70, 2.79, 2.45, 9.86, repro,
1996-03-18,3.40, 1.31, -7.24, 3.09, 2.78, 11.06, repro,
1996-03-19,1.71, 2.43, -1.97, 2.68, 2.43, 9.72, repro,
1996-03-20,1.03, -0.73, -7.41, 2.87, 2.54, 10.35, repro,
1996-03-21,3.23, 0.93, -1.79, 2.79, 2.57, 10.29, repro,
1996-03-22,1.23, 3.14, -19.59, 3.19, 2.91, 12.24, repro,
1996-03-23,2.28, 1.58, -1.63, 2.82, 2.46, 10.25, repro,
1996-03-24,4.45, -1.86, -15.60, 2.89, 2.62, 10.51, repro,
1996-03-25,0.04, -0.55, -2.69, 2.83, 2.57, 10.06, repro,
1996-03-26,-0.06, -0.92, -5.58, 2.91, 2.68, 11.01, repro,
1996-03-27,0.77, 1.62, -5.30, 2.66, 2.37, 9.52, repro,
1996-03-28,1.36, 1.68, -3.62, 2.58, 2.28, 9.06, repro,
1996-03-29,0.30, 0.32, -9.36, 2.64, 2.32, 9.52, repro,
1996-03-30,3.05, 2.14, -0.37, 2.66, 2.36, 9.46, repro,
1996-03-31,1.78, 3.03, -4.09, 2.70, 2.40, 9.60, repro,
1996-04-01,2.70, 4.26, 3.42, 2.61, 2.34, 9.21, repro,
1996-04-02,0.33, 2.90, 3.32, 2.97, 2.65, 9.97, repro,
1996-04-03,0.22, 2.61, 1.86, 2.56, 2.35, 9.35, repro,
1996-04-04,3.36, 3.41, 2.80, 2.81, 2.54, 10.28, repro,
1996-04-05,0.49, 0.71, 0.17, 2.68, 2.39, 9.76, repro,
1996-04-06,3.26, 3.61, -5.54, 2.65, 2.37, 9.46, repro,
1996-04-07,1.74, 1.74, -3.76, 3.47, 3.24, 13.75, repro,
1996-04-08,2.72, 3.15, -5.52, 2.61, 2.29, 9.05, repro,
1996-04-09,2.53, 4.05, -3.85, 2.71, 2.37, 9.75, repro,
1996-04-10,3.66, 3.16, 8.43, 2.62, 2.36, 9.27, repro,
1996-04-11,1.43, 0.52, -7.87, 2.64, 2.41, 9.68, repro,
1996-04-12,2.62, 0.85, -4.55, 2.77, 2.44, 10.07, repro,
1996-04-13,3.32, 2.60, -1.64, 2.62, 2.34, 9.29, repro,
1996-04-14,1.70, 2.70, -3.45, 2.66, 2.38, 9.55, repro,
1996-04-15,2.10, 4.04, -2.38, 2.67, 2.36, 9.57, repro,
1996-04-16,0.27, 3.67, -5.90, 2.74, 2.44, 9.76, repro,
1996-04-17,0.41, 4.54, -3.78, 2.89, 2.62, 10.36, repro,
1996-04-18,1.38, 0.79, -10.55, 2.89, 2.59, 10.23, repro,
1996-04-19,-0.30, 2.00, -8.64, 2.81, 2.48, 10.18, repro,
1996-04-20,2.98, 3.92, -0.28, 2.78, 2.47, 9.98, repro,
1996-04-21,1.16, 3.62, -5.42, 2.86, 2.47, 9.94, repro,
1996-04-22,3.01, 3.47, -4.14, 2.73, 2.40, 9.54, repro,
1996-04-23,1.49, 2.96, -1.97, 2.64, 2.29, 9.49, repro,
1996-04-24,2.11, 4.44, -9.13, 2.76, 2.46, 10.09, repro,
1996-04-25,0.70, 4.92, 0.97, 2.67, 2.33, 9.70, repro,
1996-04-26,1.86, 3.90, -2.46, 2.70, 2.35, 9.87, repro,
1996-04-27,3.84, 3.09, 5.41, 2.65, 2.36, 9.84, repro,
1996-04-28,2.89, 4.64, 2.55, 2.72, 2.37, 9.82, repro,
1996-04-29,-3.39, 10.01, 16.91, 6.07, 6.05, 26.72, repro,
1996-05-02,3.22, 4.94, -5.09, 2.99, 2.65, 11.04, repro,
1996-05-03,2.06, 2.63, -8.57, 2.75, 2.36, 10.18, repro,
1996-05-04,1.84, 1.56, -11.32, 2.74, 2.49, 10.16, repro,
1996-05-05,4.01, 4.68, -14.74, 2.67, 2.35, 9.67, repro,
1996-05-06,0.10, 3.72, -8.21, 2.60, 2.30, 9.51, repro,
1996-05-07,2.37, 4.12, -3.53, 2.66, 2.38, 9.91, repro,
1996-05-08,1.10, 3.50, -7.12, 2.75, 2.48, 10.12, repro,
1996-05-09,2.75, 3.23, -7.82, 2.74, 2.39, 10.01, repro,
1996-05-10,2.60, 5.17, -8.20, 2.85, 2.59, 10.48, repro,
1996-05-11,3.72, 3.31, -9.47, 2.72, 2.38, 9.66, repro,
1996-05-12,1.49, 4.97, -7.98, 2.78, 2.47, 9.93, repro,
1996-05-13,2.13, 3.99, -0.09, 2.71, 2.47, 9.91, repro,
1996-05-14,1.78, 4.95, -2.31, 2.75, 2.42, 9.84, repro,
1996-05-15,2.09, 4.18, 3.84, 2.72, 2.42, 9.67, repro,
1996-05-16,1.41, 5.41, -2.29, 2.71, 2.45, 9.85, repro,
1996-05-17,1.40, 1.22, 2.00, 2.78, 2.51, 10.06, repro,
1996-05-18,2.37, 4.09, -4.92, 2.74, 2.47, 9.93, repro,
1996-05-19,0.80, 4.07, -13.01, 3.29, 3.00, 12.67, repro,
1996-05-20,0.92, 3.69, -0.43, 2.72, 2.55, 10.12, repro,
1996-05-21,2.10, 2.50, 0.84, 2.83, 2.55, 10.21, repro,
1996-05-22,0.99, 2.83, -2.34, 2.71, 2.43, 9.87, repro,
1996-05-23,0.89, 0.34, -4.22, 2.83, 2.42, 10.34, repro,
1996-05-24,-0.30, 1.66, -10.44, 2.87, 2.55, 10.55, repro,
1996-05-25,0.05, 3.35, -9.55, 2.97, 2.56, 10.65, repro,
1996-05-26,2.23, 2.77, -4.94, 2.74, 2.47, 10.13, repro,
1996-05-27,1.93, 2.39, 0.86, 2.91, 2.62, 10.93, repro,
1996-05-28,1.14, 3.27, -4.83, 2.69, 2.45, 9.99, repro,
1996-05-29,1.32, 3.07, -4.14, 2.86, 2.70, 10.86, repro,
1996-05-30,1.13, 3.75, -8.07, 2.69, 2.44, 9.91, repro,
1996-05-31,1.87, 2.28, -12.15, 2.68, 2.42, 9.92, repro,
1996-06-01,1.14, 1.97, -3.51, 2.74, 2.49, 10.09, repro,
1996-06-02,1.32, 2.99, -16.03, 2.78, 2.55, 10.45, repro,
1996-06-03,2.54, 1.61, -19.09, 2.84, 2.58, 10.79, repro,
1996-06-04,2.25, 3.17, -12.37, 2.79, 2.57, 10.50, repro,
1996-06-05,1.08, 2.41, -2.44, 2.84, 2.58, 10.78, repro,
1996-06-06,2.60, 2.95, -13.05, 2.75, 2.51, 10.57, repro,
1996-06-07,2.19, 0.21, -1.08, 3.06, 2.74, 11.54, repro,
1996-06-08,4.40, 3.55, 0.06, 2.68, 2.43, 10.17, repro,
1996-06-09,1.83, 2.37, -4.96, 2.75, 2.56, 10.47, repro,
1996-06-10,2.28, 3.60, -2.96, 2.89, 2.68, 11.33, repro,
1996-06-11,1.52, 2.27, -2.83, 2.79, 2.63, 10.68, repro,
1996-06-12,1.84, 1.96, -4.31, 2.71, 2.54, 10.35, repro,
1996-06-13,2.31, 2.07, -11.99, 2.88, 2.62, 11.27, repro,
1996-06-14,1.89, 2.71, -20.18, 3.59, 3.26, 13.36, repro,
1996-06-15,2.12, 2.86, -25.87, 3.05, 2.89, 11.80, repro,
1996-06-16,1.84, 1.77, -13.54, 2.82, 2.64, 10.65, repro,
1996-06-17,1.48, 2.51, -16.67, 2.85, 2.66, 10.48, repro,
1996-06-18,0.91, 2.95, 2.34, 2.92, 2.66, 11.09, repro,
1996-06-19,1.10, 1.13, 1.83, 2.90, 2.62, 10.97, repro,
1996-06-20,-1.96, 3.49, -8.59, 2.88, 2.66, 11.21, repro,
1996-06-21,0.57, 2.59, -4.74, 2.91, 2.58, 10.95, repro,
1996-06-22,-2.12, 0.56, -14.90, 2.62, 2.33, 10.14, repro,
1996-06-23,-0.60, 0.62, -9.89, 3.11, 2.71, 11.40, repro,
1996-06-24,1.04, 3.19, -6.65, 2.83, 2.55, 10.59, repro,
1996-06-25,1.47, 3.12, -1.82, 3.17, 2.81, 11.88, repro,
1996-06-26,2.62, 4.03, -15.51, 2.99, 2.71, 11.17, repro,
1996-06-27,1.07, 3.38, -19.13, 3.04, 2.70, 11.38, repro,
1996-06-28,1.05, 2.13, -19.62, 2.93, 2.56, 10.78, repro,
1996-06-29,1.10, 2.65, -14.98, 2.88, 2.60, 10.89, repro,
1996-06-30,2.02, 4.49, -8.54, 2.98, 2.70, 10.98, repro,
1996-07-01,1.18, 3.28, -12.82, 3.29, 2.92, 12.18, repro,
1996-07-02,0.09, 3.16, -3.67, 3.17, 2.90, 11.70, repro,
1996-07-03,-0.45, 4.56, -7.31, 3.05, 2.81, 11.14, repro,
1996-07-04,3.21, 1.33, -9.64, 3.12, 2.72, 11.52, repro,
1996-07-05,0.08, 3.99, -5.61, 2.80, 2.55, 10.11, repro,
1996-07-06,1.25, 2.63, -2.30, 3.00, 2.70, 11.25, repro,
1996-07-07,1.41, 3.97, -5.67, 2.77, 2.47, 10.01, repro,
1996-07-08,1.84, 3.91, 3.59, 2.73, 2.55, 10.34, repro,
1996-07-09,1.14, 2.76, -6.20, 2.72, 2.51, 10.16, repro,
1996-07-10,1.60, 4.50, -10.78, 2.76, 2.55, 10.16, repro,
1996-07-11,-0.93, 3.72, -9.12, 2.64, 2.39, 9.64, repro,
1996-07-12,0.19, 2.40, -4.51, 2.78, 2.51, 10.33, repro,
1996-07-13,1.34, -0.11, -7.70, 2.71, 2.47, 10.00, repro,
1996-07-14,2.42, 2.33, -8.30, 2.66, 2.41, 9.84, repro,
1996-07-15,0.42, 2.25, -9.09, 2.74, 2.45, 10.34, repro,
1996-07-16,0.36, 2.08, -4.32, 2.71, 2.40, 10.11, repro,
1996-07-17,0.79, 2.12, -4.38, 2.92, 2.63, 10.65, repro,
1996-07-18,0.37, 1.12, -9.68, 2.63, 2.45, 10.14, repro,
1996-07-19,0.11, 1.63, -7.97, 2.59, 2.37, 9.75, repro,
1996-07-20,-0.42, 0.33, -5.61, 2.59, 2.35, 9.77, repro,
1996-07-21,-0.44, 1.92, -4.69, 2.62, 2.36, 9.77, repro,
1996-07-22,0.50, 1.49, -16.21, 2.58, 2.34, 9.80, repro,
1996-07-23,-3.42, -0.23, -18.19, 2.32, 2.12, 9.17, repro,
1996-07-24,-2.85, -0.04, -10.07, 2.53, 2.28, 10.17, repro,
1996-07-25,-3.04, 0.55, -14.14, 2.35, 2.13, 9.22, repro,
1996-07-26,-2.36, -1.65, -12.09, 2.44, 2.22, 9.49, repro,
1996-07-27,-1.13, -1.21, -15.91, 2.38, 2.17, 9.34, repro,
1996-07-28,-3.29, -0.96, -10.23, 2.39, 2.17, 9.28, repro,
1996-07-29,-2.53, -0.50, -13.64, 2.38, 2.20, 9.33, repro,
1996-07-30,-1.49, -0.93, -5.20, 2.37, 2.16, 9.33, repro,
1996-07-31,-1.87, -0.26, -9.92, 2.38, 2.19, 9.46, repro,
1996-08-01,-2.91, -0.15, -10.44, 2.39, 2.18, 9.36, repro,
1996-08-02,-4.21, 0.09, -6.33, 2.49, 2.25, 9.63, repro,
1996-08-03,-3.21, -0.79, -4.85, 2.48, 2.32, 10.03, repro,
1996-08-04,-3.30, -0.03, -3.56, 2.39, 2.22, 9.51, repro,
1996-08-05,-3.70, 0.69, -9.12, 2.46, 2.25, 10.22, repro,
1996-08-06,-4.66, 0.68, -15.36, 2.51, 2.30, 10.10, repro,
1996-08-07,-2.76, 0.36, -5.09, 2.44, 2.22, 9.59, repro,
1996-08-08,-2.57, -0.25, -13.10, 2.71, 2.39, 10.88, repro,
1996-08-09,-0.36, 1.94, -8.54, 2.57, 2.32, 9.91, repro,
1996-08-10,-1.25, 2.05, -9.59, 2.60, 2.32, 10.15, repro,
1996-08-11,-1.55, 2.59, -6.88, 2.60, 2.37, 10.07, repro,
1996-08-12,0.69, 3.93, -11.75, 2.77, 2.48, 11.00, repro,
1996-08-13,-2.09, 2.24, -8.46, 2.67, 2.38, 10.59, repro,
1996-08-14,-1.69, 2.28, -14.28, 2.84, 2.37, 10.89, repro,
1996-08-15,0.06, -0.49, -7.45, 2.85, 2.62, 11.06, repro,
1996-08-16,0.20, 0.68, -9.76, 3.05, 2.70, 11.71, repro,
1996-08-17,0.60, 1.06, -2.49, 2.69, 2.39, 10.32, repro,
1996-08-18,1.24, 1.90, -8.88, 3.03, 2.63, 11.84, repro,
1996-08-19,-1.90, 1.26, -8.50, 3.01, 2.58, 11.95, repro,
1996-08-20,-1.95, 1.55, -8.11, 2.99, 2.66, 11.96, repro,
1996-08-21,-0.77, 2.55, -6.01, 2.75, 2.32, 10.64, repro,
1996-08-22,-1.45, 1.58, -6.23, 2.54, 2.30, 9.79, repro,
1996-08-23,-1.04, 1.94, -6.58, 2.79, 2.43, 10.91, repro,
1996-08-24,-0.61, 2.44, -13.53, 2.86, 2.41, 10.81, repro,
1996-08-25,-2.81, 1.70, -1.47, 2.54, 2.23, 9.70, repro,
1996-08-26,-1.52, 1.50, -2.68, 2.77, 2.42, 10.58, repro,
1996-08-27,-0.09, 2.05, -3.23, 2.88, 2.66, 11.26, repro,
1996-08-28,-1.31, 2.39, -5.49, 2.79, 2.50, 10.60, repro,
1996-08-29,-0.68, 4.87, -11.24, 2.76, 2.54, 11.31, repro,
1996-08-30,0.83, 3.24, -6.81, 2.70, 2.53, 10.31, repro,
1996-08-31,-0.25, 3.05, -6.34, 2.56, 2.28, 9.95, repro,
1996-09-01,-1.55, 2.44, -14.01, 2.63, 2.39, 10.01, repro,
1996-09-02,1.20, 2.83, -11.56, 2.61, 2.34, 9.97, repro,
1996-09-03,-2.72, -0.24, -9.51, 2.63, 2.33, 10.75, repro,
1996-09-04,-0.46, 2.93, -1.94, 2.76, 2.46, 10.66, repro,
1996-09-05,-1.31, 1.50, -10.86, 2.55, 2.34, 9.71, repro,
1996-09-06,0.41, 3.15, -12.76, 2.90, 2.65, 11.22, repro,
1996-09-07,-0.19, 1.15, -12.04, 2.78, 2.47, 10.77, repro,
1996-09-08,1.52, 0.12, -10.66, 2.75, 2.51, 10.86, repro,
1996-09-09,-1.37, 1.98, -7.35, 2.72, 2.44, 10.64, repro,
1996-09-10,-0.80, 1.94, -8.75, 2.85, 2.66, 11.72, repro,
1996-09-11,-0.30, 3.05, 0.56, 2.86, 2.79, 11.69, repro,
1996-09-12,-0.87, 2.62, -3.53, 2.61, 2.39, 10.12, repro,
1996-09-13,-1.76, 2.65, -1.21, 2.68, 2.48, 10.51, repro,
1996-09-14,-3.75, -0.57, -6.73, 2.54, 2.27, 10.13, repro,
1996-09-15,-1.47, 3.49, -4.31, 2.72, 2.37, 10.80, repro,
1996-09-16,-0.62, 2.30, -8.26, 2.62, 2.46, 10.24, repro,
1996-09-17,0.97, 2.90, -13.01, 2.62, 2.38, 10.35, repro,
1996-09-18,-1.24, 2.72, -9.78, 2.54, 2.33, 10.03, repro,
1996-09-19,-2.47, 1.33, -15.18, 2.50, 2.29, 9.91, repro,
1996-09-20,-0.41, 2.09, -10.22, 2.67, 2.42, 10.34, repro,
1996-09-21,-1.58, 0.89, -8.75, 2.55, 2.32, 10.42, repro,
1996-09-22,-0.67, 1.78, -6.38, 2.64, 2.45, 10.41, repro,
1996-09-23,0.26, 1.25, -8.22, 2.60, 2.45, 10.48, repro,
1996-09-24,-0.41, 2.48, -9.58, 2.60, 2.25, 9.97, repro,
1996-09-25,-2.64, 2.77, -17.50, 2.35, 2.10, 9.21, repro,
1996-09-26,-3.85, 1.70, -14.37, 2.64, 2.39, 10.48, repro,
1996-09-27,-1.33, 1.64, -8.47, 2.40, 2.25, 9.73, repro,
1996-09-28,-2.66, 0.23, -16.60, 2.37, 2.17, 9.37, repro,
1996-09-29,0.26, 2.17, -12.95, 2.53, 2.33, 9.82, repro,
1996-09-30,-0.45, 2.31, -5.58, 2.55, 2.31, 9.59, repro,
1996-10-01,-0.47, 1.88, 0.64, 2.78, 2.54, 10.39, repro,
1996-10-02,-0.72, 3.38, -4.42, 2.44, 2.29, 9.48, repro,
1996-10-03,-0.12, 3.53, -0.02, 2.49, 2.31, 9.53, repro,
1996-10-04,-0.56, 1.66, -6.51, 2.53, 2.34, 9.66, repro,
1996-10-05,0.08, 1.69, -4.39, 2.51, 2.27, 9.54, repro,
1996-10-06,-0.33, 1.47, -8.60, 2.58, 2.37, 9.74, repro,
1996-10-07,-0.33, 2.05, -7.36, 2.51, 2.27, 9.35, repro,
1996-10-08,-1.33, 4.21, -6.05, 2.57, 2.30, 9.76, repro,
1996-10-09,-0.56, 2.66, -3.06, 2.60, 2.38, 10.25, repro,
1996-10-10,-1.64, 3.05, -9.06, 2.42, 2.18, 9.17, repro,
1996-10-11,-1.17, 3.15, -4.26, 2.41, 2.20, 9.28, repro,
1996-10-12,-1.61, 2.39, -7.73, 2.74, 2.45, 10.28, repro,
1996-10-13,-2.64, 4.50, -3.58, 3.06, 2.80, 11.74, repro,
1996-10-14,-0.45, 2.00, -1.24, 2.51, 2.36, 9.64, repro,
1996-10-15,-0.17, 2.57, -4.03, 2.50, 2.36, 9.54, repro,
1996-10-16,-2.33, 2.87, -4.44, 2.99, 2.79, 11.98, repro,
1996-10-17,-1.46, 1.90, -12.60, 2.55, 2.37, 9.72, repro,
1996-10-18,-3.45, -0.30, -10.82, 2.39, 2.28, 9.56, repro,
1996-10-19,-1.94, 0.67, -11.26, 2.36, 2.15, 9.22, repro,
1996-10-20,-4.58, 0.06, -5.21, 2.38, 2.36, 9.66, repro,
1996-10-21,-0.48, 1.57, -8.50, 2.41, 2.21, 9.22, repro,
1996-10-22,-0.79, 1.95, -8.01, 2.51, 2.39, 9.79, repro,
1996-10-23,-0.16, 0.79, -1.59, 2.52, 2.38, 10.26, repro,
1996-10-24,-4.02, 1.54, -8.04, 2.32, 2.10, 9.15, repro,
1996-10-25,0.55, 2.66, 0.35, 2.41, 2.21, 9.29, repro,
1996-10-26,-3.06, 1.97, 2.45, 2.57, 2.33, 9.89, repro,
1996-10-27,3.35, 5.24, -9.95, 2.67, 2.56, 10.63, repro,
1996-10-28,-0.22, 2.55, -15.26, 2.55, 2.35, 9.81, repro,
1996-10-29,-1.69, 1.06, -17.42, 2.38, 2.12, 9.23, repro,
1996-10-30,-3.45, 0.36, -14.61, 2.40, 2.12, 9.53, repro,
1996-10-31,-2.71, 0.63, -11.00, 2.69, 2.36, 10.63, repro,
1996-11-01,-0.27, 2.30, -12.88, 2.51, 2.28, 9.75, repro,
1996-11-02,0.36, 2.42, -18.60, 2.76, 2.42, 10.68, repro,
1996-11-03,0.51, 3.19, -11.18, 2.71, 2.35, 10.57, repro,
1996-11-04,-0.16, 2.12, -12.15, 2.89, 2.38, 10.68, repro,
1996-11-05,0.03, 1.19, -11.40, 2.67, 2.35, 10.36, repro,
1996-11-06,-0.44, 2.18, -8.86, 2.75, 2.41, 10.46, repro,
1996-11-07,0.37, 2.42, -15.23, 2.84, 2.43, 10.49, repro,
1996-11-08,-1.15, -0.04, -21.44, 2.49, 2.31, 9.90, repro,
1996-11-09,2.30, 2.46, -10.31, 2.86, 2.49, 10.71, repro,
1996-11-10,0.06, 2.75, -2.89, 2.95, 2.42, 11.13, repro,
1996-11-11,-0.50, 2.12, -17.12, 3.08, 2.63, 12.01, repro,
1996-11-12,-0.23, 2.30, -18.91, 2.70, 2.37, 10.32, repro,
1996-11-13,-0.79, 2.68, -8.38, 2.61, 2.32, 9.89, repro,
1996-11-14,0.12, 1.42, -9.20, 2.46, 2.18, 9.48, repro,
1996-11-15,-1.54, 2.63, -5.86, 2.79, 2.53, 10.39, repro,
1996-11-16,-0.21, 1.21, -0.15, 2.94, 2.49, 10.94, repro,
1996-11-17,1.40, 2.43, -4.46, 2.97, 2.52, 11.49, repro,
1996-11-18,-0.62, 3.68, -9.79, 2.90, 2.52, 11.25, repro,
1996-11-19,-2.92, 1.13, -13.19, 2.72, 2.39, 10.46, repro,
1996-11-20,-1.82, 2.80, 1.66, 2.68, 2.30, 10.18, repro,
1996-11-21,0.81, 4.75, -11.37, 2.73, 2.33, 10.43, repro,
1996-11-22,3.47, 1.45, -9.97, 2.97, 2.56, 11.26, repro,
1996-11-23,-1.27, 3.71, -12.11, 2.90, 2.45, 10.59, repro,
1996-11-24,1.11, 4.08, -11.03, 2.76, 2.42, 10.30, repro,
1996-11-25,-1.85, 1.99, -8.93, 2.77, 2.29, 10.38, repro,
1996-11-26,-1.89, 0.69, -13.24, 2.70, 2.39, 10.07, repro,
1996-11-27,-5.23, 0.92, 0.78, 2.77, 2.30, 10.48, repro,
1996-11-28,0.21, -0.44, -11.11, 2.80, 2.61, 11.06, repro,
1996-11-29,-0.99, -0.56, -8.48, 2.91, 2.49, 10.68, repro,
1996-11-30,-0.72, 1.66, -0.95, 3.15, 2.46, 12.07, repro,
1996-12-01,0.01, 1.46, -12.29, 2.93, 2.70, 11.33, repro,
1996-12-02,0.05, 0.48, -9.09, 3.12, 2.65, 11.92, repro,
1996-12-03,-0.24, 1.84, -16.88, 2.67, 2.40, 10.22, repro,
1996-12-04,3.10, 1.70, -17.40, 2.95, 2.57, 11.16, repro,
1996-12-05,3.53, 1.64, -8.89, 3.03, 2.37, 11.14, repro,
1996-12-06,-0.03, 0.62, -4.16, 2.95, 2.42, 11.19, repro,
1996-12-07,0.29, 2.89, -4.45, 2.84, 2.39, 10.63, repro,
1996-12-08,3.41, 2.61, -7.93, 2.87, 2.38, 10.37, repro,
1996-12-09,1.12, -0.89, -5.97, 2.75, 2.31, 10.32, repro,
1996-12-10,2.29, -0.84, -27.85, 2.93, 2.34, 10.69, repro,
1996-12-11,0.53, -0.77, -5.71, 2.50, 2.24, 9.26, repro,
1996-12-12,-0.81, 0.31, -11.52, 2.69, 2.33, 10.11, repro,
1996-12-13,0.19, 0.90, -9.23, 2.61, 2.24, 9.79, repro,
1996-12-14,0.68, 1.07, -9.44, 2.63, 2.30, 10.19, repro,
1996-12-15,1.55, 0.22, -21.24, 2.65, 2.32, 9.97, repro,
1996-12-16,0.99, 0.91, -18.15, 2.49, 2.22, 9.64, repro,
1996-12-18,1.03, -0.42, -16.78, 2.65, 2.30, 9.89, repro,
1996-12-19,1.18, 0.91, -10.71, 2.65, 2.27, 10.05, repro,
1996-12-20,0.35, 1.14, -12.25, 2.62, 2.26, 10.02, repro,
1996-12-21,0.77, -1.16, -9.44, 2.64, 2.28, 9.97, repro,
1996-12-22,1.99, -2.04, -11.43, 2.53, 2.23, 9.51, repro,
1996-12-23,0.15, -0.49, -14.28, 2.65, 2.29, 10.03, repro,
1996-12-24,1.88, 1.19, -12.36, 2.81, 2.33, 10.76, repro,
1996-12-25,2.91, 2.26, -9.22, 2.61, 2.31, 10.07, repro,
1996-12-26,0.87, 0.05, -7.55, 2.72, 2.40, 10.34, repro,
1996-12-27,3.84, 0.66, -12.83, 2.70, 2.38, 10.33, repro,
1996-12-28,-0.51, -0.02, -10.45, 2.64, 2.22, 10.07, repro,
1996-12-29,1.66, -0.20, -5.98, 2.76, 2.50, 10.73, repro,
1996-12-30,2.50, -1.16, -5.71, 2.79, 2.44, 10.39, repro,
1996-12-31,2.99, 0.98, -10.12, 2.69, 2.40, 10.39, repro,
1997-01-01,2.14, 0.80, -7.98, 2.54, 2.39, 9.70, repro,
1997-01-02,0.66, -0.61, -4.57, 2.66, 2.53, 10.36, repro,
1997-01-03,1.53, 0.14, 1.18, 2.67, 2.51, 10.45, repro,
1997-01-04,1.15, 1.84, -13.68, 2.57, 2.34, 9.93, repro,
1997-01-05,0.57, -0.81, -9.06, 2.78, 2.60, 11.10, repro,
1997-01-06,0.56, 1.45, -21.03, 2.74, 2.51, 10.35, repro,
1997-01-07,1.52, 0.69, -16.92, 2.77, 2.38, 10.66, repro,
1997-01-08,-2.31, -1.02, -20.70, 2.52, 2.38, 10.06, repro,
1997-01-09,-0.34, -0.14, -17.77, 2.85, 2.66, 11.73, repro,
1997-01-10,-3.19, -2.55, -20.54, 2.46, 2.30, 9.68, repro,
1997-01-11,-1.45, -2.20, -16.34, 2.52, 2.16, 9.73, repro,
1997-01-12,-0.84, -0.58, -23.42, 2.48, 2.22, 9.66, repro,
1997-01-13,-3.77, 2.19, -11.84, 2.55, 2.36, 10.22, repro,
1997-01-14,-2.18, 0.28, -23.09, 2.82, 2.52, 11.16, repro,
1997-01-15,-2.23, 0.99, -25.29, 2.59, 2.44, 10.42, repro,
1997-01-16,-0.35, 0.41, -25.84, 2.55, 2.37, 10.10, repro,
1997-01-17,1.27, 0.46, -29.03, 2.72, 2.57, 10.92, repro,
1997-01-18,-1.26, -0.47, -25.94, 2.56, 2.41, 10.09, repro,
1997-01-19,-0.63, 0.02, -20.46, 2.59, 2.48, 10.31, repro,
1997-01-20,-3.66, -2.68, -25.96, 2.45, 2.25, 9.79, repro,
1997-01-21,-1.98, -1.11, -17.97, 2.69, 2.35, 10.42, repro,
1997-01-22,1.13, 0.23, -17.57, 2.68, 2.42, 10.37, repro,
1997-01-23,-0.46, -1.01, -16.67, 2.57, 2.36, 9.94, repro,
1997-01-24,0.13, 0.10, -15.05, 2.83, 2.57, 11.06, repro,
1997-01-25,0.74, -1.59, -22.21, 2.72, 2.44, 10.95, repro,
1997-01-26,-2.48, -1.47, -19.18, 2.43, 2.27, 9.64, repro,
1997-01-27,1.35, -1.89, -25.64, 3.12, 2.51, 11.80, repro,
1997-01-28,-0.62, -0.12, -29.38, 2.52, 2.38, 10.25, repro,
1997-01-29,-3.98, -1.93, -18.32, 2.44, 2.25, 9.80, repro,
1997-01-30,0.28, 1.25, -24.30, 2.43, 2.28, 9.52, repro,
1997-01-31,0.90, -0.12, -16.58, 2.45, 2.24, 9.65, repro,
1997-02-01,-1.87, 0.86, -15.09, 2.33, 2.10, 9.11, repro,
1997-02-24,-0.01, -2.66, -22.03, 2.86, 2.78, 11.25, repro,
1997-02-25,-1.48, 0.55, -14.38, 2.64, 2.42, 10.52, repro,
1997-02-26,-3.01, -3.03, -19.53, 2.76, 2.57, 11.54, repro,
1997-02-27,-0.51, -1.50, -19.14, 2.94, 2.76, 12.06, repro,
1997-02-28,-1.60, -4.40, -35.46, 2.84, 2.57, 11.63, repro,
1997-03-01,-3.59, -3.98, -13.06, 2.89, 2.75, 11.62, repro,
1997-03-02,-0.72, -1.56, -22.83, 2.66, 2.34, 10.97, repro,
1997-03-03,-2.76, -0.72, -14.86, 2.49, 2.33, 10.21, repro,
1997-03-04,-5.44, -2.80, -30.72, 2.75, 2.59, 11.29, repro,
1997-03-05,-1.44, -2.01, -19.08, 2.94, 2.69, 11.99, repro,
1997-03-06,-3.31, -2.50, -20.33, 2.75, 2.74, 11.39, repro,
1997-03-07,-3.26, -2.88, -15.75, 2.56, 2.27, 10.29, repro,
1997-03-08,-0.65, -0.24, -13.91, 2.80, 2.47, 10.71, repro,
1997-03-09,-1.11, -0.10, -15.56, 3.02, 2.64, 11.58, repro,
1997-03-10,0.54, -1.69, -25.82, 2.89, 2.74, 11.54, repro,
1997-03-11,-1.94, -1.84, -16.10, 2.89, 3.05, 12.89, repro,
1997-03-12,-4.62, -1.16, -19.75, 2.55, 2.36, 10.25, repro,
1997-03-13,-3.65, -3.05, -25.26, 2.58, 2.43, 10.82, repro,
1997-03-15,-2.66, -2.03, -7.39, 2.46, 2.29, 10.11, repro,
1997-03-16,-0.64, -2.00, -9.41, 2.45, 2.20, 9.29, repro,
1997-03-17,-2.50, -2.74, -14.73, 2.32, 2.16, 9.37, repro,